Location: Songkhla
(7.2000°N, 100.6000°E)
Time: 20:25:17
(UTC+07:00)

Daily predictions for brighter satellites

Satellite Brightness Start Highest point End
(mag) Time Altitude Azimuth Time Altitude Azimuth Time Altitude Azimuth
Cosmos 1271 Rocket 3.7 18:16:11 10° NNW 18:20:06 54° W 18:24:00 10° S
YAOGAN 1 4.0 18:21:05 10° ESE 18:23:48 16° ENE 18:26:30 10° NE
Cosmos 1328 3.8 18:20:34 10° N 18:24:24 57° E 18:28:15 10° SSE
Skynet4D Del rocket 3.8 18:19:49 10° SW 18:25:07 61° SSE 18:30:47 10° ENE
PAYLOAD A 3.9 18:21:55 10° W 18:25:22 57° S 18:32:56 10° ESE
USA 234 4.4 18:21:17 10° ENE 18:26:22 24° SE 18:31:27 10° S
COSMOS 2406 3.6 18:26:53 10° N 18:32:13 41° ENE 18:37:31 10° SE
Cosmos 1242 Rocket 2.7 18:30:21 10° N 18:33:58 78° W 18:37:33 10° S
SMAP 4.4 18:30:39 10° S 18:35:04 45° WSW 18:39:29 10° NNW
Cosmos 2297 4.5 18:31:34 10° SSW 18:37:06 56° WNW 18:42:39 10° N
CSL-04 Rocket 4.3 18:36:46 10° SE 18:41:42 33° ENE 18:46:36 10° NNE
FengYun 1-2 T 4.4 18:36:51 10° SSE 18:42:18 50° ENE 18:47:43 10° N
Cosmos 44 Rocket 3.4 18:38:32 10° SSW 18:43:34 61° ESE 18:48:31 10° NNE
Fermi 4.0 18:45:00 10° WSW 18:49:03 62° NNW 18:51:54 19° NE
Cosmos-2242 3.4 18:45:16 10° SSE 18:49:22 40° E 18:53:27 10° NNE
CZ-4 R/B 1.4 18:47:05 10° SSE 18:51:06 57° ENE 18:55:10 10° N
Cosmos 1703 4.4 18:53:42 10° NNW 18:57:26 46° W 19:01:09 10° SSW
SL-4 R/B 1.7 18:59:23 10° NW 19:02:54 72° SW 19:05:55 13° SSE
ADEOS Rocket 3.8 19:00:34 10° NE 19:06:38 33° E 19:12:10 10° SSE
deb Ariane 3.3 19:04:46 10° W 19:07:39 87° N 19:11:29 26° E
Cosmos 1455 3.9 19:06:42 10° SSE 19:08:07 19° SE 19:08:07 19° SE
GPS 2-05 Rocket1 4.2 19:08:13 10° W 19:10:29 22° NW 19:11:10 20° NNW
Atlas Centaur 2 3.9 19:05:25 10° W 19:11:10 31° SW 19:15:52 10° SSE
YAOGAN 6 3.3 19:09:14 10° S 19:12:51 55° W 19:16:26 10° NNW
Cosmos 841 Rocket 3.3 19:09:53 10° S 19:15:03 77° ESE 19:19:42 13° NNE
Cosmos 2344 3.6 19:11:59 10° SSW 19:21:08 77° ESE 19:27:17 17° NNE
Cosmos 1459 Rocket 4.3 19:15:18 10° NNE 19:21:13 42° E 19:27:10 10° SSE
USA 215 3.7 19:14:51 10° SSE 19:21:18 62° SW 19:27:45 10° NW
ATLAS 5 CENTAUR R/B 2.9 19:19:03 10° W 19:24:07 70° NNW 19:33:15 28° ENE
Cosmos 1833 Rocket 2.7 19:19:04 10° N 19:24:33 56° ENE 19:29:53 11° SSE
Cosmos 2369 Rocket 2.1 19:20:03 10° SSW 19:25:45 89° ESE 19:29:44 20° NNE
CSL-04 Debris 4.5 19:25:44 10° S 19:31:06 66° WSW 19:36:29 10° NNW
Delta 202 3.8 19:25:23 10° WSW 19:31:10 56° SSE 19:32:04 49° SE
Cosmos 540 Rocket 3.4 19:27:28 10° SSW 19:32:37 87° WNW 19:34:59 33° N
GPS 2-12 Rocket1 4.1 19:34:58 10° NW 19:38:21 34° NNW 19:38:21 34° NNW
Cosmos 2123 Rocket 3.9 19:34:20 10° S 19:40:41 87° W 19:46:59 10° N
Cosmos 1943 Rocket 3.2 19:41:12 10° SW 19:46:24 43° WNW 19:50:59 13° N
Cosmos 2173 Rocket 3.8 19:44:09 10° N 19:50:17 84° E 19:56:22 10° S
Cosmos 2082 Rocket 3.7 19:51:31 10° NNW 19:53:39 24° N 19:53:39 24° N
Meteor 2-10 Rocket 4.2 19:59:38 10° SSW 20:04:03 54° SW 20:04:03 54° SW
USA 234 3.8 20:07:24 41° N 20:09:09 51° NW 20:15:27 10° SW
Ariane H10-3 4.2 20:09:18 10° WSW 20:11:15 38° SW 20:11:15 38° SW
CZ-3B R/B 4.2 20:31:56 10° WNW 20:54:01 78° NNE 20:54:52 77° NE
